Time,TemperatureF,DewpointF,PressureIn,WindDirection,WindDirectionDegrees,WindSpeedMPH,WindSpeedGustMPH,Humidity,HourlyPrecipIn,Conditions,Clouds,dailyrainin,SolarRadiationWatts/m^2,SoftwareType,DateUTC
2017-03-28 00:03:00,43.0,41.7,30.02,NE,44,0.0,5.0,95,0.00,,,0.00,0,Wunderground v.1.15,2017-03-28 05:03:00,
2017-03-28 00:09:00,42.9,41.6,30.02,NE,44,1.0,5.0,95,0.00,,,0.00,0,Wunderground v.1.15,2017-03-28 05:09:00,
2017-03-28 00:14:00,42.9,41.6,30.02,NE,44,2.0,4.0,95,0.00,,,0.00,0,Wunderground v.1.15,2017-03-28 05:14:00,
2017-03-28 00:19:00,42.9,41.6,30.02,NE,44,5.0,5.0,95,0.00,,,0.00,0,Wunderground v.1.15,2017-03-28 05:19:00,
2017-03-28 00:25:00,42.8,41.5,30.02,NE,44,2.0,4.0,95,0.00,,,0.00,0,Wunderground v.1.15,2017-03-28 05:25:00,
2017-03-28 00:30:00,42.8,41.5,30.01,NE,44,2.0,2.0,95,0.00,,,0.00,0,Wunderground v.1.15,2017-03-28 05:30:00,
2017-03-28 00:35:00,42.8,41.5,30.01,NE,44,3.0,4.0,95,0.00,,,0.00,0,Wunderground v.1.15,2017-03-28 05:35:00,
2017-03-28 00:41:00,42.7,41.4,30.02,NE,44,0.0,2.0,95,0.00,,,0.00,0,Wunderground v.1.15,2017-03-28 05:41:00,
2017-03-28 00:46:00,42.7,41.4,30.02,NE,44,2.0,5.0,95,0.00,,,0.00,0,Wunderground v.1.15,2017-03-28 05:46:00,
2017-03-28 00:52:00,42.7,41.4,30.02,NE,44,1.0,2.0,95,0.00,,,0.00,0,Wunderground v.1.15,2017-03-28 05:52:00,
2017-03-28 00:57:00,42.7,41.4,30.02,NE,44,2.0,2.0,95,0.00,,,0.00,0,Wunderground v.1.15,2017-03-28 05:57:00,
2017-03-28 01:03:00,42.7,41.4,30.02,NE,44,1.0,2.0,95,0.00,,,0.00,0,Wunderground v.1.15,2017-03-28 06:03:00,
2017-03-28 01:09:00,42.7,41.4,30.02,NE,44,7.0,7.0,95,0.00,,,0.00,0,Wunderground v.1.15,2017-03-28 06:09:00,
2017-03-28 01:14:00,42.6,41.3,30.02,NE,44,2.0,6.0,95,0.00,,,0.00,0,Wunderground v.1.15,2017-03-28 06:14:00,
2017-03-28 01:19:00,42.6,41.3,30.02,NE,44,2.0,6.0,95,0.00,,,0.00,0,Wunderground v.1.15,2017-03-28 06:19:00,
2017-03-28 01:25:00,42.6,41.5,30.03,NE,44,2.0,6.0,96,0.00,,,0.00,0,Wunderground v.1.15,2017-03-28 06:25:00,
2017-03-28 01:30:00,42.6,41.5,30.03,NNE,28,1.0,6.0,96,0.00,,,0.00,0,Wunderground v.1.15,2017-03-28 06:30:00,
2017-03-28 01:35:00,42.5,41.2,30.03,NNE,28,0.0,4.0,95,0.00,,,0.00,0,Wunderground v.1.15,2017-03-28 06:35:00,
2017-03-28 01:41:00,42.5,41.4,30.03,NNE,28,1.0,2.0,96,0.00,,,0.00,0,Wunderground v.1.15,2017-03-28 06:41:00,
2017-03-28 01:46:00,42.5,41.4,30.03,NNE,28,3.0,3.0,96,0.00,,,0.00,0,Wunderground v.1.15,2017-03-28 06:46:00,
2017-03-28 01:52:00,42.5,41.4,30.04,NNE,28,4.0,4.0,96,0.00,,,0.00,0,Wunderground v.1.15,2017-03-28 06:52:00,
2017-03-28 01:58:00,42.4,41.1,30.04,NNE,28,2.0,4.0,95,0.00,,,0.00,0,Wunderground v.1.15,2017-03-28 06:58:00,
2017-03-28 02:03:00,42.4,41.1,30.04,NNE,28,2.0,4.0,95,0.00,,,0.00,0,Wunderground v.1.15,2017-03-28 07:03:00,
2017-03-28 02:08:00,42.3,41.0,30.04,NNE,28,5.0,7.0,95,0.00,,,0.00,0,Wunderground v.1.15,2017-03-28 07:08:00,
2017-03-28 02:13:00,42.3,41.0,30.04,NNE,28,1.0,5.0,95,0.00,,,0.00,0,Wunderground v.1.15,2017-03-28 07:13:00,
2017-03-28 02:18:00,42.3,41.0,30.04,NNE,13,5.0,7.0,95,0.00,,,0.00,0,Wunderground v.1.15,2017-03-28 07:18:00,
2017-03-28 02:23:00,42.3,41.0,30.03,NNE,24,5.0,7.0,95,0.00,,,0.00,0,Wunderground v.1.15,2017-03-28 07:23:00,
2017-03-28 02:28:00,42.3,41.0,30.03,North,5,4.0,7.0,95,0.00,,,0.00,0,Wunderground v.1.15,2017-03-28 07:28:00,
2017-03-28 02:33:00,42.3,41.0,30.03,North,5,0.0,6.0,95,0.00,,,0.00,0,Wunderground v.1.15,2017-03-28 07:33:00,
2017-03-28 02:38:00,42.2,40.9,30.03,North,5,2.0,6.0,95,0.00,,,0.00,0,Wunderground v.1.15,2017-03-28 07:38:00,
2017-03-28 02:43:00,42.2,40.9,30.03,North,10,3.0,6.0,95,0.00,,,0.00,0,Wunderground v.1.15,2017-03-28 07:43:00,
2017-03-28 02:48:00,42.1,40.8,30.04,North,11,0.0,10.0,95,0.00,,,0.00,0,Wunderground v.1.15,2017-03-28 07:48:00,
2017-03-28 02:53:00,42.0,40.7,30.04,NNE,17,1.0,6.0,95,0.00,,,0.00,0,Wunderground v.1.15,2017-03-28 07:53:00,
2017-03-28 02:58:00,42.0,40.7,30.04,NNE,26,1.0,6.0,95,0.00,,,0.00,0,Wunderground v.1.15,2017-03-28 07:58:00,
2017-03-28 03:03:00,41.9,40.6,30.04,NNE,26,4.0,4.0,95,0.00,,,0.00,0,Wunderground v.1.15,2017-03-28 08:03:00,
2017-03-28 03:08:00,41.9,40.6,30.04,NNE,26,1.0,4.0,95,0.00,,,0.00,0,Wunderground v.1.15,2017-03-28 08:08:00,
2017-03-28 03:13:00,41.9,40.6,30.04,NNE,26,1.0,3.0,95,0.00,,,0.00,0,Wunderground v.1.15,2017-03-28 08:13:00,
2017-03-28 03:18:00,41.8,40.5,30.04,NNE,19,2.0,5.0,95,0.00,,,0.00,0,Wunderground v.1.15,2017-03-28 08:18:00,
2017-03-28 03:23:00,41.7,40.4,30.03,NNE,19,1.0,4.0,95,0.00,,,0.00,0,Wunderground v.1.15,2017-03-28 08:23:00,
2017-03-28 03:28:00,41.7,40.4,30.04,NNE,19,0.0,4.0,95,0.00,,,0.00,0,Wunderground v.1.15,2017-03-28 08:28:00,
2017-03-28 03:33:00,41.6,40.3,30.04,NE,34,3.0,5.0,95,0.00,,,0.00,0,Wunderground v.1.15,2017-03-28 08:33:00,
2017-03-28 03:38:00,41.6,40.3,30.04,NE,34,3.0,5.0,95,0.00,,,0.00,0,Wunderground v.1.15,2017-03-28 08:38:00,
2017-03-28 03:43:00,41.6,40.3,30.03,NE,34,2.0,5.0,95,0.00,,,0.00,0,Wunderground v.1.15,2017-03-28 08:43:00,
2017-03-28 03:48:00,41.6,40.3,30.04,NE,34,3.0,5.0,95,0.00,,,0.00,0,Wunderground v.1.15,2017-03-28 08:48:00,
2017-03-28 03:53:00,41.6,40.3,30.04,NE,34,1.0,5.0,95,0.00,,,0.00,0,Wunderground v.1.15,2017-03-28 08:53:00,
2017-03-28 03:58:00,41.5,40.2,30.04,NE,36,6.0,7.0,95,0.00,,,0.00,0,Wunderground v.1.15,2017-03-28 08:58:00,
2017-03-28 04:03:00,41.5,40.2,30.04,NNE,29,3.0,5.0,95,0.00,,,0.00,0,Wunderground v.1.15,2017-03-28 09:03:00,
2017-03-28 04:08:00,41.4,40.1,30.04,NE,36,4.0,5.0,95,0.00,,,0.00,0,Wunderground v.1.15,2017-03-28 09:08:00,
2017-03-28 04:13:00,41.3,40.0,30.04,NE,36,2.0,4.0,95,0.00,,,0.00,0,Wunderground v.1.15,2017-03-28 09:13:00,
2017-03-28 04:18:00,41.2,39.9,30.05,NE,47,5.0,7.0,95,0.00,,,0.00,0,Wunderground v.1.15,2017-03-28 09:18:00,
2017-03-28 04:23:00,41.1,39.8,30.05,NE,34,3.0,7.0,95,0.00,,,0.00,0,Wunderground v.1.15,2017-03-28 09:23:00,
2017-03-28 04:28:00,41.1,39.8,30.05,NNE,33,3.0,7.0,95,0.00,,,0.00,0,Wunderground v.1.15,2017-03-28 09:28:00,
2017-03-28 04:33:00,41.1,39.8,30.06,NNE,18,5.0,6.0,95,0.00,,,0.00,0,Wunderground v.1.15,2017-03-28 09:33:00,
2017-03-28 04:38:00,41.0,39.7,30.06,NE,53,4.0,7.0,95,0.00,,,0.00,0,Wunderground v.1.15,2017-03-28 09:38:00,
2017-03-28 04:43:00,41.0,39.7,30.06,NNE,32,3.0,5.0,95,0.00,,,0.00,0,Wunderground v.1.15,2017-03-28 09:43:00,
2017-03-28 04:48:00,41.0,39.7,30.06,NNE,24,1.0,6.0,95,0.00,,,0.00,0,Wunderground v.1.15,2017-03-28 09:48:00,
2017-03-28 04:53:00,41.0,39.7,30.06,NNE,24,3.0,5.0,95,0.00,,,0.00,0,Wunderground v.1.15,2017-03-28 09:53:00,
2017-03-28 04:58:00,40.9,39.6,30.07,NE,47,2.0,5.0,95,0.00,,,0.00,0,Wunderground v.1.15,2017-03-28 09:58:00,
2017-03-28 05:03:00,41.0,39.7,30.07,NE,43,3.0,5.0,95,0.00,,,0.00,0,Wunderground v.1.15,2017-03-28 10:03:00,
2017-03-28 05:08:00,40.9,39.6,30.07,NNE,25,4.0,6.0,95,0.00,,,0.00,0,Wunderground v.1.15,2017-03-28 10:08:00,
2017-03-28 05:13:00,40.8,39.5,30.07,NE,46,4.0,7.0,95,0.00,,,0.00,0,Wunderground v.1.15,2017-03-28 10:13:00,
2017-03-28 05:18:00,40.7,39.4,30.07,NE,41,4.0,7.0,95,0.00,,,0.00,0,Wunderground v.1.15,2017-03-28 10:18:00,
2017-03-28 05:23:00,40.6,39.0,30.08,NE,47,1.0,7.0,94,0.00,,,0.00,0,Wunderground v.1.15,2017-03-28 10:23:00,
2017-03-28 05:28:00,40.6,39.0,30.08,NE,35,4.0,7.0,94,0.00,,,0.00,0,Wunderground v.1.15,2017-03-28 10:28:00,
2017-03-28 05:33:00,40.6,39.0,30.08,NE,40,5.0,6.0,94,0.00,,,0.00,0,Wunderground v.1.15,2017-03-28 10:33:00,
2017-03-28 05:38:00,40.6,39.0,30.08,NE,55,4.0,7.0,94,0.00,,,0.00,0,Wunderground v.1.15,2017-03-28 10:38:00,
2017-03-28 05:43:00,40.5,38.9,30.08,NNE,15,6.0,7.0,94,0.00,,,0.00,0,Wunderground v.1.15,2017-03-28 10:43:00,
2017-03-28 05:48:00,40.5,38.9,30.08,NNE,20,2.0,7.0,94,0.00,,,0.00,0,Wunderground v.1.15,2017-03-28 10:48:00,
2017-03-28 05:53:00,40.5,38.9,30.08,NNE,32,4.0,6.0,94,0.00,,,0.00,0,Wunderground v.1.15,2017-03-28 10:53:00,
2017-03-28 05:58:00,40.5,38.9,30.08,NNE,30,4.0,6.0,94,0.00,,,0.00,0,Wunderground v.1.15,2017-03-28 10:58:00,
2017-03-28 06:03:00,40.5,38.9,30.09,NNE,30,3.0,4.0,94,0.00,,,0.00,0,Wunderground v.1.15,2017-03-28 11:03:00,
2017-03-28 06:08:00,40.5,38.9,30.09,North,5,3.0,6.0,94,0.00,,,0.00,0,Wunderground v.1.15,2017-03-28 11:08:00,
2017-03-28 06:13:00,40.4,38.8,30.09,NNE,14,0.0,7.0,94,0.00,,,0.00,0,Wunderground v.1.15,2017-03-28 11:13:00,
2017-03-28 06:18:00,40.4,38.8,30.09,NNE,26,2.0,7.0,94,0.00,,,0.00,0,Wunderground v.1.15,2017-03-28 11:18:00,
2017-03-28 06:23:00,40.4,38.8,30.09,North,11,2.0,6.0,94,0.00,,,0.00,0,Wunderground v.1.15,2017-03-28 11:23:00,
2017-03-28 06:28:00,40.4,38.8,30.10,North,11,6.0,8.0,94,0.00,,,0.00,0,Wunderground v.1.15,2017-03-28 11:28:00,
2017-03-28 06:33:00,40.4,38.8,30.10,North,9,4.0,8.0,94,0.00,,,0.00,0,Wunderground v.1.15,2017-03-28 11:33:00,
2017-03-28 06:38:00,40.4,38.8,30.10,North,9,1.0,8.0,94,0.00,,,0.00,0,Wunderground v.1.15,2017-03-28 11:38:00,
2017-03-28 06:44:00,40.3,38.7,30.09,North,9,2.0,5.0,94,0.00,,,0.00,0,Wunderground v.1.15,2017-03-28 11:44:00,
2017-03-28 06:49:00,40.4,38.8,30.10,North,9,1.0,5.0,94,0.00,,,0.00,0,Wunderground v.1.15,2017-03-28 11:49:00,
2017-03-28 06:54:00,40.3,38.7,30.10,North,9,0.0,1.0,94,0.00,,,0.00,0,Wunderground v.1.15,2017-03-28 11:54:00,
2017-03-28 06:59:00,40.4,38.8,30.11,North,9,0.0,2.0,94,0.00,,,0.00,0,Wunderground v.1.15,2017-03-28 11:59:00,
2017-03-28 07:04:00,40.4,38.8,30.11,North,9,2.0,2.0,94,0.00,,,0.00,5,Wunderground v.1.15,2017-03-28 12:04:00,
2017-03-28 07:09:00,40.4,38.8,30.11,North,9,0.0,5.0,94,0.00,,,0.00,5,Wunderground v.1.15,2017-03-28 12:09:00,
2017-03-28 07:14:00,40.4,38.8,30.11,North,9,0.0,2.0,94,0.00,,,0.00,5,Wunderground v.1.15,2017-03-28 12:14:00,
2017-03-28 07:19:00,40.4,38.8,30.12,North,9,2.0,5.0,94,0.00,,,0.00,7,Wunderground v.1.15,2017-03-28 12:19:00,
2017-03-28 07:24:00,40.3,38.7,30.12,North,9,1.0,5.0,94,0.00,,,0.00,7,Wunderground v.1.15,2017-03-28 12:24:00,
2017-03-28 07:29:00,40.3,38.7,30.12,North,9,4.0,5.0,94,0.00,,,0.00,9,Wunderground v.1.15,2017-03-28 12:29:00,
2017-03-28 07:34:00,40.4,38.8,30.12,NNE,32,4.0,7.0,94,0.00,,,0.00,12,Wunderground v.1.15,2017-03-28 12:34:00,
2017-03-28 07:39:00,40.4,38.5,30.12,NE,46,3.0,9.0,93,0.00,,,0.00,14,Wunderground v.1.15,2017-03-28 12:39:00,
2017-03-28 07:44:00,40.4,38.5,30.12,ENE,61,4.0,10.0,93,0.00,,,0.00,16,Wunderground v.1.15,2017-03-28 12:44:00,
2017-03-28 07:49:00,40.4,38.5,30.12,NNE,30,3.0,10.0,93,0.00,,,0.00,18,Wunderground v.1.15,2017-03-28 12:49:00,
2017-03-28 07:54:00,40.4,38.5,30.12,NNE,31,3.0,4.0,93,0.00,,,0.00,19,Wunderground v.1.15,2017-03-28 12:54:00,
2017-03-28 07:59:00,40.4,38.5,30.12,NNE,28,1.0,6.0,93,0.00,,,0.00,23,Wunderground v.1.15,2017-03-28 12:59:00,
2017-03-28 08:05:00,40.5,38.6,30.12,NNE,28,1.0,4.0,93,0.00,,,0.00,25,Wunderground v.1.15,2017-03-28 13:05:00,
2017-03-28 08:10:00,40.5,38.6,30.12,NNE,28,4.0,4.0,93,0.00,,,0.00,28,Wunderground v.1.15,2017-03-28 13:10:00,
2017-03-28 08:15:00,40.5,38.6,30.13,NE,52,4.0,6.0,93,0.00,,,0.00,26,Wunderground v.1.15,2017-03-28 13:15:00,
2017-03-28 08:20:00,40.6,38.7,30.13,NE,52,0.0,3.0,93,0.00,,,0.00,30,Wunderground v.1.15,2017-03-28 13:20:00,
2017-03-28 08:25:00,40.6,38.7,30.13,NE,37,3.0,6.0,93,0.00,,,0.00,39,Wunderground v.1.15,2017-03-28 13:25:00,
2017-03-28 08:30:00,40.7,38.8,30.13,NE,37,0.0,2.0,93,0.00,,,0.00,53,Wunderground v.1.15,2017-03-28 13:30:00,
2017-03-28 08:35:00,40.7,38.8,30.13,NE,37,0.0,4.0,93,0.00,,,0.00,60,Wunderground v.1.15,2017-03-28 13:35:00,
2017-03-28 08:40:00,40.7,38.8,30.13,NE,37,0.0,3.0,93,0.00,,,0.00,84,Wunderground v.1.15,2017-03-28 13:40:00,
2017-03-28 08:45:00,40.8,38.9,30.13,NE,37,1.0,3.0,93,0.00,,,0.00,90,Wunderground v.1.15,2017-03-28 13:45:00,
2017-03-28 08:50:00,40.9,39.0,30.14,NE,37,2.0,2.0,93,0.00,,,0.00,91,Wunderground v.1.15,2017-03-28 13:50:00,
2017-03-28 08:55:00,41.0,39.1,30.14,NE,37,2.0,8.0,93,0.00,,,0.00,100,Wunderground v.1.15,2017-03-28 13:55:00,
2017-03-28 09:00:00,41.0,40.5,30.14,NE,37,2.0,3.0,98,0.00,,,0.00,120,Wunderground v.1.15,2017-03-28 14:00:00,
2017-03-28 09:05:00,41.1,39.2,30.14,NE,37,3.0,5.0,93,0.00,,,0.00,130,Wunderground v.1.15,2017-03-28 14:05:00,
2017-03-28 09:10:00,41.3,39.2,30.14,North,10,6.0,6.0,92,0.00,,,0.00,114,Wunderground v.1.15,2017-03-28 14:10:00,
2017-03-28 09:15:00,41.3,38.9,30.14,NNE,28,5.0,9.0,91,0.00,,,0.00,111,Wunderground v.1.15,2017-03-28 14:15:00,
2017-03-28 09:20:00,41.5,39.1,30.15,NNE,30,7.0,8.0,91,0.00,,,0.00,111,Wunderground v.1.15,2017-03-28 14:20:00,
2017-03-28 09:25:00,41.5,39.1,30.15,NE,47,4.0,9.0,91,0.00,,,0.00,102,Wunderground v.1.15,2017-03-28 14:25:00,
2017-03-28 09:30:00,41.7,39.0,30.15,NE,39,4.0,7.0,90,0.00,,,0.00,128,Wunderground v.1.15,2017-03-28 14:30:00,
2017-03-28 09:35:00,41.8,39.1,30.15,NE,50,4.0,7.0,90,0.00,,,0.00,202,Wunderground v.1.15,2017-03-28 14:35:00,
2017-03-28 09:40:00,42.0,39.3,30.15,ENE,57,4.0,5.0,90,0.00,,,0.00,167,Wunderground v.1.15,2017-03-28 14:40:00,
2017-03-28 09:45:00,42.2,39.5,30.15,NNE,33,4.0,15.0,90,0.00,,,0.00,181,Wunderground v.1.15,2017-03-28 14:45:00,
2017-03-28 09:50:00,42.3,39.3,30.15,NNE,28,4.0,7.0,89,0.00,,,0.00,185,Wunderground v.1.15,2017-03-28 14:50:00,
2017-03-28 09:55:00,42.4,39.4,30.15,North,5,3.0,9.0,89,0.00,,,0.00,211,Wunderground v.1.15,2017-03-28 14:55:00,
2017-03-28 10:00:00,42.6,39.3,30.15,NE,47,6.0,7.0,88,0.00,,,0.00,237,Wunderground v.1.15,2017-03-28 15:00:00,
2017-03-28 10:05:00,42.7,39.1,30.15,NE,45,3.0,7.0,87,0.00,,,0.00,225,Wunderground v.1.15,2017-03-28 15:05:00,
2017-03-28 10:10:00,42.9,39.3,30.15,NE,38,2.0,4.0,87,0.00,,,0.00,272,Wunderground v.1.15,2017-03-28 15:10:00,
2017-03-28 10:15:00,43.1,39.5,30.15,NE,38,5.0,5.0,87,0.00,,,0.00,274,Wunderground v.1.15,2017-03-28 15:15:00,
2017-03-28 10:20:00,43.3,39.7,30.15,NE,47,7.0,7.0,87,0.00,,,0.00,253,Wunderground v.1.15,2017-03-28 15:20:00,
2017-03-28 10:25:00,43.5,39.6,30.15,NE,44,8.0,9.0,86,0.00,,,0.00,288,Wunderground v.1.15,2017-03-28 15:25:00,
2017-03-28 10:30:00,43.7,39.8,30.15,NE,55,4.0,6.0,86,0.00,,,0.00,271,Wunderground v.1.15,2017-03-28 15:30:00,
2017-03-28 10:35:00,43.8,39.9,30.15,ENE,62,4.0,7.0,86,0.00,,,0.00,290,Wunderground v.1.15,2017-03-28 15:35:00,
2017-03-28 10:40:00,44.1,40.2,30.15,NE,50,1.0,3.0,86,0.00,,,0.00,339,Wunderground v.1.15,2017-03-28 15:40:00,
2017-03-28 10:45:00,44.3,40.4,30.15,North,11,2.0,6.0,86,0.00,,,0.00,318,Wunderground v.1.15,2017-03-28 15:45:00,
2017-03-28 10:50:00,44.5,40.6,30.15,NNE,24,3.0,3.0,86,0.00,,,0.00,320,Wunderground v.1.15,2017-03-28 15:50:00,
2017-03-28 10:55:00,44.6,40.1,30.16,North,5,6.0,8.0,84,0.00,,,0.00,401,Wunderground v.1.15,2017-03-28 15:55:00,
2017-03-28 11:00:00,44.6,39.8,30.16,NE,48,6.0,7.0,83,0.00,,,0.00,454,Wunderground v.1.15,2017-03-28 16:00:00,
2017-03-28 11:05:00,44.9,40.0,30.16,ENE,65,5.0,9.0,83,0.00,,,0.00,659,Wunderground v.1.15,2017-03-28 16:05:00,
2017-03-28 11:10:00,45.2,40.3,30.16,North,11,4.0,9.0,83,0.00,,,0.00,659,Wunderground v.1.15,2017-03-28 16:10:00,
2017-03-28 11:15:00,45.6,41.0,30.16,ENE,75,5.0,9.0,84,0.00,,,0.00,443,Wunderground v.1.15,2017-03-28 16:15:00,
2017-03-28 11:20:00,45.8,40.9,30.16,ENE,59,2.0,7.0,83,0.00,,,0.00,350,Wunderground v.1.15,2017-03-28 16:20:00,
2017-03-28 11:25:00,45.9,41.0,30.17,ENE,60,5.0,9.0,83,0.00,,,0.00,828,Wunderground v.1.15,2017-03-28 16:25:00,
2017-03-28 11:30:00,46.5,41.6,30.17,North,360,2.0,4.0,83,0.00,,,0.00,976,Wunderground v.1.15,2017-03-28 16:30:00,
2017-03-28 11:35:00,47.3,43.0,30.16,ENE,77,4.0,6.0,85,0.00,,,0.00,1013,Wunderground v.1.15,2017-03-28 16:35:00,
2017-03-28 11:37:00,47.6,42.4,30.16,NNE,25,2.0,6.0,82,0.00,,,0.00,1069,Wunderground v.1.15,2017-03-28 16:37:00,
2017-03-28 11:42:00,48.0,42.4,30.16,NNE,19,4.0,9.0,81,0.00,,,0.00,976,Wunderground v.1.15,2017-03-28 16:42:00,
2017-03-28 11:47:00,47.9,41.7,30.16,NE,45,5.0,9.0,79,0.00,,,0.00,323,Wunderground v.1.15,2017-03-28 16:47:00,
2017-03-28 11:52:00,47.4,41.5,30.17,NNE,17,0.0,5.0,80,0.00,,,0.00,345,Wunderground v.1.15,2017-03-28 16:52:00,
2017-03-28 11:57:00,47.6,42.1,30.16,NNE,23,4.0,8.0,81,0.00,,,0.00,330,Wunderground v.1.15,2017-03-28 16:57:00,
2017-03-28 12:02:00,47.7,42.2,30.16,North,5,5.0,8.0,81,0.00,,,0.00,1042,Wunderground v.1.15,2017-03-28 17:02:00,
2017-03-28 12:07:00,47.7,41.8,30.16,NNE,13,3.0,8.0,80,0.00,,,0.00,304,Wunderground v.1.15,2017-03-28 17:07:00,
2017-03-28 12:12:00,47.8,41.9,30.16,NNE,32,6.0,7.0,80,0.00,,,0.00,301,Wunderground v.1.15,2017-03-28 17:12:00,
2017-03-28 12:17:00,48.1,42.2,30.16,North,9,4.0,7.0,80,0.00,,,0.00,907,Wunderground v.1.15,2017-03-28 17:17:00,
2017-03-28 12:22:00,48.5,42.0,30.16,NE,55,4.0,5.0,78,0.00,,,0.00,176,Wunderground v.1.15,2017-03-28 17:22:00,
2017-03-28 12:23:00,48.5,42.0,30.16,ENE,65,8.0,8.0,78,0.00,,,0.00,176,Wunderground v.1.15,2017-03-28 17:23:00,
2017-03-28 12:28:00,48.8,42.2,30.16,ENE,65,5.0,10.0,78,0.00,,,0.00,874,Wunderground v.1.15,2017-03-28 17:28:00,
2017-03-28 12:33:00,49.2,43.0,30.16,NE,39,2.0,6.0,79,0.00,,,0.00,974,Wunderground v.1.15,2017-03-28 17:33:00,
2017-03-28 12:38:00,49.5,42.6,30.16,North,350,2.0,13.0,77,0.00,,,0.00,246,Wunderground v.1.15,2017-03-28 17:38:00,
2017-03-28 12:43:00,49.6,42.7,30.16,NNW,346,4.0,9.0,77,0.00,,,0.00,923,Wunderground v.1.15,2017-03-28 17:43:00,
2017-03-28 12:48:00,49.6,42.7,30.16,NNE,12,1.0,9.0,77,0.00,,,0.00,972,Wunderground v.1.15,2017-03-28 17:48:00,
2017-03-28 12:53:00,49.9,42.6,30.15,NNE,28,7.0,9.0,76,0.00,,,0.00,190,Wunderground v.1.15,2017-03-28 17:53:00,
2017-03-28 12:58:00,49.8,42.2,30.15,ENE,59,5.0,11.0,75,0.00,,,0.00,872,Wunderground v.1.15,2017-03-28 17:58:00,
2017-03-28 13:03:00,50.2,42.6,30.15,ENE,68,4.0,11.0,75,0.00,,,0.00,932,Wunderground v.1.15,2017-03-28 18:03:00,
2017-03-28 13:05:00,50.4,42.4,30.15,NE,49,10.0,11.0,74,0.00,,,0.00,921,Wunderground v.1.15,2017-03-28 18:05:00,
2017-03-28 13:10:00,50.9,43.6,30.15,NE,50,9.0,11.0,76,0.00,,,0.00,875,Wunderground v.1.15,2017-03-28 18:10:00,
2017-03-28 13:15:00,50.7,42.4,30.15,North,9,4.0,11.0,73,0.00,,,0.00,842,Wunderground v.1.15,2017-03-28 18:15:00,
2017-03-28 13:20:00,50.9,41.8,30.15,ESE,123,5.0,10.0,71,0.00,,,0.00,851,Wunderground v.1.15,2017-03-28 18:20:00,
2017-03-28 13:25:00,51.2,42.5,30.15,ENE,65,4.0,10.0,72,0.00,,,0.00,865,Wunderground v.1.15,2017-03-28 18:25:00,
2017-03-28 13:30:00,51.3,42.6,30.15,NNE,28,2.0,5.0,72,0.00,,,0.00,295,Wunderground v.1.15,2017-03-28 18:30:00,
2017-03-28 13:35:00,51.4,43.0,30.15,NNE,17,5.0,9.0,73,0.00,,,0.00,359,Wunderground v.1.15,2017-03-28 18:35:00,
2017-03-28 13:40:00,51.5,43.1,30.15,ENE,65,5.0,9.0,73,0.00,,,0.00,842,Wunderground v.1.15,2017-03-28 18:40:00,
2017-03-28 13:45:00,51.9,42.8,30.15,NNE,26,5.0,9.0,71,0.00,,,0.00,867,Wunderground v.1.15,2017-03-28 18:45:00,
2017-03-28 13:50:00,52.3,43.5,30.15,NE,47,5.0,7.0,72,0.00,,,0.00,889,Wunderground v.1.15,2017-03-28 18:50:00,
2017-03-28 13:55:00,52.7,42.8,30.15,ENE,66,1.0,10.0,69,0.00,,,0.00,863,Wunderground v.1.15,2017-03-28 18:55:00,
2017-03-28 14:00:00,52.7,43.2,30.15,ESE,115,2.0,9.0,70,0.00,,,0.00,904,Wunderground v.1.15,2017-03-28 19:00:00,
2017-03-28 14:05:00,53.1,43.9,30.15,North,11,2.0,9.0,71,0.00,,,0.00,877,Wunderground v.1.15,2017-03-28 19:05:00,
2017-03-28 14:10:00,53.4,43.9,30.14,NE,46,7.0,10.0,70,0.00,,,0.00,844,Wunderground v.1.15,2017-03-28 19:10:00,
2017-03-28 14:15:00,53.3,43.4,30.15,North,5,0.0,10.0,69,0.00,,,0.00,795,Wunderground v.1.15,2017-03-28 19:15:00,
2017-03-28 14:20:00,53.7,44.1,30.15,East,88,10.0,10.0,70,0.00,,,0.00,770,Wunderground v.1.15,2017-03-28 19:20:00,
2017-03-28 14:25:00,53.8,42.7,30.15,ENE,74,4.0,13.0,66,0.00,,,0.00,770,Wunderground v.1.15,2017-03-28 19:25:00,
2017-03-28 14:30:00,54.1,43.4,30.14,NE,41,0.0,8.0,67,0.00,,,0.00,761,Wunderground v.1.15,2017-03-28 19:30:00,
2017-03-28 14:36:00,54.2,43.9,30.15,North,5,2.0,10.0,68,0.00,,,0.00,751,Wunderground v.1.15,2017-03-28 19:36:00,
2017-03-28 14:41:00,54.4,44.8,30.15,NNE,31,6.0,9.0,70,0.00,,,0.00,744,Wunderground v.1.15,2017-03-28 19:41:00,
2017-03-28 14:46:00,54.2,43.5,30.15,NNE,21,5.0,10.0,67,0.00,,,0.00,729,Wunderground v.1.15,2017-03-28 19:46:00,
2017-03-28 14:51:00,54.2,43.9,30.15,NE,44,9.0,11.0,68,0.00,,,0.00,724,Wunderground v.1.15,2017-03-28 19:51:00,
2017-03-28 14:56:00,54.2,43.1,30.14,NE,34,4.0,11.0,66,0.00,,,0.00,714,Wunderground v.1.15,2017-03-28 19:56:00,
2017-03-28 15:01:00,54.3,43.6,30.14,NE,50,4.0,9.0,67,0.00,,,0.00,705,Wunderground v.1.15,2017-03-28 20:01:00,
2017-03-28 15:06:00,54.6,43.1,30.15,ENE,57,2.0,12.0,65,0.00,,,0.00,687,Wunderground v.1.15,2017-03-28 20:06:00,
2017-03-28 15:11:00,54.4,43.3,30.14,NE,50,4.0,8.0,66,0.00,,,0.00,687,Wunderground v.1.15,2017-03-28 20:11:00,
2017-03-28 15:16:00,54.5,42.2,30.14,ENE,69,7.0,11.0,63,0.00,,,0.00,677,Wunderground v.1.15,2017-03-28 20:16:00,
2017-03-28 15:21:00,54.5,42.6,30.14,NE,53,7.0,10.0,64,0.00,,,0.00,661,Wunderground v.1.15,2017-03-28 20:21:00,
2017-03-28 15:26:00,54.4,42.9,30.15,NE,53,7.0,10.0,65,0.00,,,0.00,652,Wunderground v.1.15,2017-03-28 20:26:00,
2017-03-28 15:31:00,54.3,42.4,30.14,NE,51,8.0,10.0,64,0.00,,,0.00,636,Wunderground v.1.15,2017-03-28 20:31:00,
2017-03-28 15:36:00,54.5,43.4,30.15,ENE,69,7.0,10.0,66,0.00,,,0.00,624,Wunderground v.1.15,2017-03-28 20:36:00,
2017-03-28 15:41:00,55.0,44.2,30.15,ENE,77,12.0,12.0,67,0.00,,,0.00,610,Wunderground v.1.15,2017-03-28 20:41:00,
2017-03-28 15:46:00,55.1,43.9,30.15,North,10,6.0,12.0,66,0.00,,,0.00,621,Wunderground v.1.15,2017-03-28 20:46:00,
2017-03-28 15:51:00,55.1,42.7,30.15,North,9,2.0,6.0,63,0.00,,,0.00,587,Wunderground v.1.15,2017-03-28 20:51:00,
2017-03-28 15:56:00,55.2,43.6,30.14,NE,55,9.0,12.0,65,0.00,,,0.00,582,Wunderground v.1.15,2017-03-28 20:56:00,
2017-03-28 16:01:00,55.2,43.2,30.14,NE,51,9.0,12.0,64,0.00,,,0.00,564,Wunderground v.1.15,2017-03-28 21:01:00,
2017-03-28 16:06:00,55.0,42.2,30.14,NW,317,5.0,12.0,62,0.00,,,0.00,550,Wunderground v.1.15,2017-03-28 21:06:00,
2017-03-28 16:11:00,55.1,42.7,30.14,NE,34,9.0,12.0,63,0.00,,,0.00,533,Wunderground v.1.15,2017-03-28 21:11:00,
2017-03-28 16:16:00,55.2,43.2,30.14,ENE,65,7.0,12.0,64,0.00,,,0.00,529,Wunderground v.1.15,2017-03-28 21:16:00,
2017-03-28 16:21:00,55.5,43.1,30.14,ENE,75,5.0,10.0,63,0.00,,,0.00,513,Wunderground v.1.15,2017-03-28 21:21:00,
2017-03-28 16:26:00,55.5,42.7,30.14,ENE,63,4.0,11.0,62,0.00,,,0.00,482,Wunderground v.1.15,2017-03-28 21:26:00,
2017-03-28 16:31:00,55.5,43.1,30.14,ENE,58,7.0,11.0,63,0.00,,,0.00,468,Wunderground v.1.15,2017-03-28 21:31:00,
2017-03-28 16:36:00,55.4,43.0,30.14,NE,50,5.0,11.0,63,0.00,,,0.00,464,Wunderground v.1.15,2017-03-28 21:36:00,
2017-03-28 16:41:00,55.4,42.6,30.14,ENE,69,9.0,10.0,62,0.00,,,0.00,431,Wunderground v.1.15,2017-03-28 21:41:00,
2017-03-28 16:46:00,55.4,43.0,30.14,ENE,60,9.0,11.0,63,0.00,,,0.00,441,Wunderground v.1.15,2017-03-28 21:46:00,
2017-03-28 16:51:00,55.2,42.4,30.14,NE,54,4.0,11.0,62,0.00,,,0.00,413,Wunderground v.1.15,2017-03-28 21:51:00,
2017-03-28 16:56:00,55.4,43.4,30.14,NNE,21,10.0,13.0,64,0.00,,,0.00,404,Wunderground v.1.15,2017-03-28 21:56:00,
2017-03-28 17:02:00,55.5,42.7,30.14,North,5,8.0,9.0,62,0.00,,,0.00,383,Wunderground v.1.15,2017-03-28 22:02:00,
2017-03-28 17:07:00,55.4,42.6,30.14,ENE,78,7.0,12.0,62,0.00,,,0.00,373,Wunderground v.1.15,2017-03-28 22:07:00,
2017-03-28 17:12:00,55.6,43.2,30.14,NE,51,4.0,9.0,63,0.00,,,0.00,352,Wunderground v.1.15,2017-03-28 22:12:00,
2017-03-28 17:17:00,55.7,42.5,30.14,NE,46,3.0,14.0,61,0.00,,,0.00,336,Wunderground v.1.15,2017-03-28 22:17:00,
2017-03-28 17:22:00,55.7,42.5,30.14,East,82,8.0,13.0,61,0.00,,,0.00,316,Wunderground v.1.15,2017-03-28 22:22:00,
2017-03-28 17:27:00,55.5,42.7,30.14,ENE,61,5.0,13.0,62,0.00,,,0.00,294,Wunderground v.1.15,2017-03-28 22:27:00,
2017-03-28 17:32:00,55.5,43.1,30.14,ENE,78,7.0,10.0,63,0.00,,,0.00,272,Wunderground v.1.15,2017-03-28 22:32:00,
2017-03-28 17:37:00,55.3,42.5,30.15,ENE,67,9.0,13.0,62,0.00,,,0.00,251,Wunderground v.1.15,2017-03-28 22:37:00,
2017-03-28 17:42:00,55.1,42.3,30.15,NE,56,7.0,9.0,62,0.00,,,0.00,227,Wunderground v.1.15,2017-03-28 22:42:00,
2017-03-28 17:47:00,55.0,42.2,30.15,NE,51,8.0,14.0,62,0.00,,,0.00,223,Wunderground v.1.15,2017-03-28 22:47:00,
2017-03-28 17:52:00,54.9,41.7,30.15,ENE,72,3.0,11.0,61,0.00,,,0.00,186,Wunderground v.1.15,2017-03-28 22:52:00,
2017-03-28 17:57:00,54.8,41.6,30.15,NE,49,8.0,11.0,61,0.00,,,0.00,148,Wunderground v.1.15,2017-03-28 22:57:00,
2017-03-28 18:02:00,54.7,41.1,30.15,ENE,74,5.0,11.0,60,0.00,,,0.00,141,Wunderground v.1.15,2017-03-28 23:02:00,
2017-03-28 18:07:00,54.6,41.4,30.15,ENE,63,9.0,11.0,61,0.00,,,0.00,91,Wunderground v.1.15,2017-03-28 23:07:00,
2017-03-28 18:12:00,54.4,41.6,30.15,ENE,69,5.0,9.0,62,0.00,,,0.00,74,Wunderground v.1.15,2017-03-28 23:12:00,
2017-03-28 18:18:00,54.3,42.0,30.15,ENE,71,5.0,11.0,63,0.00,,,0.00,63,Wunderground v.1.15,2017-03-28 23:18:00,
2017-03-28 18:23:00,54.2,41.9,30.15,ENE,58,5.0,9.0,63,0.00,,,0.00,65,Wunderground v.1.15,2017-03-28 23:23:00,
2017-03-28 18:28:00,54.0,42.1,30.15,ENE,71,7.0,9.0,64,0.00,,,0.00,51,Wunderground v.1.15,2017-03-28 23:28:00,
2017-03-28 18:33:00,53.7,41.8,30.16,NE,53,8.0,10.0,64,0.00,,,0.00,42,Wunderground v.1.15,2017-03-28 23:33:00,
2017-03-28 18:38:00,53.5,42.0,30.16,NE,43,5.0,10.0,65,0.00,,,0.00,40,Wunderground v.1.15,2017-03-28 23:38:00,
2017-03-28 18:43:00,53.2,41.3,30.16,ENE,61,8.0,10.0,64,0.00,,,0.00,33,Wunderground v.1.15,2017-03-28 23:43:00,
2017-03-28 18:48:00,53.1,41.6,30.16,ENE,63,4.0,10.0,65,0.00,,,0.00,26,Wunderground v.1.15,2017-03-28 23:48:00,
2017-03-28 18:53:00,52.9,41.4,30.16,NE,55,6.0,7.0,65,0.00,,,0.00,23,Wunderground v.1.15,2017-03-28 23:53:00,
2017-03-28 18:58:00,52.7,41.3,30.16,ENE,61,4.0,7.0,65,0.00,,,0.00,19,Wunderground v.1.15,2017-03-28 23:58:00,
2017-03-28 19:03:00,52.5,41.1,30.16,NE,53,5.0,5.0,65,0.00,,,0.00,14,Wunderground v.1.15,2017-03-29 00:03:00,
2017-03-28 19:08:00,52.3,40.9,30.17,ENE,58,3.0,7.0,65,0.00,,,0.00,12,Wunderground v.1.15,2017-03-29 00:08:00,
2017-03-28 19:13:00,52.1,41.1,30.17,ENE,58,1.0,4.0,66,0.00,,,0.00,9,Wunderground v.1.15,2017-03-29 00:13:00,
2017-03-28 19:18:00,51.8,40.8,30.17,ENE,58,2.0,4.0,66,0.00,,,0.00,5,Wunderground v.1.15,2017-03-29 00:18:00,
2017-03-28 19:23:00,51.5,40.9,30.17,ENE,58,1.0,3.0,67,0.00,,,0.00,0,Wunderground v.1.15,2017-03-29 00:23:00,
2017-03-28 19:28:00,51.2,40.6,30.17,ENE,58,0.0,3.0,67,0.00,,,0.00,0,Wunderground v.1.15,2017-03-29 00:28:00,
2017-03-28 19:33:00,50.9,40.7,30.17,ENE,58,1.0,2.0,68,0.00,,,0.00,0,Wunderground v.1.15,2017-03-29 00:33:00,